Yakima, WA

4:13 AM PDT on September 25, 2017 (GMT -0700)
Yakima Air Term-McAllister

Weather History for KYKM - February, 2013

Change the Weather History Date:

Monday, February 4, 2013

  Actual Average Record
Temperature  
Mean Temperature 41 °F 34 °F  
Max Temperature 52 °F 43 °F 63 °F (2011)
Min Temperature 30 °F 25 °F -7 °F (1985)
Degree Days  
Heating Degree Days 24 31  
Month to date heating degree days 102 124  
Since 1 July heating degree days 3371 3842  
Cooling Degree Days 0 0  
Month to date cooling degree days 0 0  
Year to date cooling degree days 0 0  
Moisture  
Dew Point 32 °F    
Average Humidity 74    
Maximum Humidity 92    
Minimum Humidity 56    
Precipitation  
Precipitation 0.00 in 0.03 in 0.28 in (1950)
Month to date precipitation 0.00 0.11  
Year to date precipitation 0.10 1.25  
Snow  
Snow 0.00 in 0.20 in 3.30 in (1950)
Month to date snowfall 0.0 0.5  
Year to date snowfall 1.1 5.8  
Since 1 July snowfall 15.3 18.8  
Snow Depth 0.00 in    
Sea Level Pressure  
Sea Level Pressure 30.10 in    
Wind  
Wind Speed 2 mph (SSW)    
Max Wind Speed 9 mph    
Max Gust Speed 13 mph    
Visibility 8 miles    
Events      
T = Trace of Precipitation, MM = Missing Value Source: NWS Daily Summary

Daily Weather History Graph

Daily Weather History Graph

Search for Another Location

Airport or City:

Trip Planner

Search our weather history database for the weather conditions in past years. The results will help you decide how hot, cold, wet, or windy it might be!

Date:

Astronomy

Feb. 04, 2013 Rise Set
Actual Time 7:21 AM PST 5:11 PM PST
Civil Twilight 6:49 AM PST 5:43 PM PST
Nautical Twilight 6:13 AM PST 6:19 PM PST
Astronomical Twilight 5:38 AM PST 6:54 PM PST
Moon 2:07 AM PST (2/4) 11:33 AM PST (2/4)
Length of Visible Light 10h 53m
Length of Day
9h 49m
Last Quarter, 36% of the Moon is Illuminated
Feb 4
Last Quarter
Feb 9
New
Feb 17
First Quarter
Feb 25
Full
Mar 4
Last Quarter

Hourly Weather History & Observations

Time (PST) Temp. Windchill Dew Point Humidity Pressure Visibility Wind Dir Wind Speed Gust Speed Precip Events Conditions
12:53 AM 33.1 °F 30.0 °F 30.0 °F 89% 30.16 in 5.0 mi SSE 3.5 mph - N/A   Partly Cloudy
2:53 AM 32.0 °F - 28.4 °F 87% 30.15 in 3.0 mi Calm Calm - N/A   Clear
3:53 AM 30.9 °F 27.5 °F 28.0 °F 89% 30.17 in 3.0 mi West 3.5 mph - N/A   Partly Cloudy
4:53 AM 34.0 °F 28.8 °F 30.0 °F 85% 30.18 in 6.0 mi WSW 5.8 mph - N/A   Clear
5:53 AM 30.9 °F 27.5 °F 28.0 °F 89% 30.16 in 5.0 mi SE 3.5 mph - N/A   Clear
6:53 AM 30.9 °F - 28.0 °F 89% 30.16 in 5.0 mi Calm Calm - N/A   Clear
7:53 AM 30.9 °F 27.5 °F 28.0 °F 89% 30.17 in 10.0 mi SSW 3.5 mph - N/A   Clear
8:53 AM 34.0 °F - 30.0 °F 85% 30.18 in 10.0 mi Calm Calm - N/A   Scattered Clouds
9:53 AM 37.0 °F - 32.0 °F 82% 30.17 in 10.0 mi Calm Calm - N/A   Scattered Clouds
10:53 AM 39.0 °F - 33.1 °F 79% 30.17 in 10.0 mi Calm Calm - N/A   Partly Cloudy
11:53 AM 41.0 °F 39.0 °F 33.1 °F 73% 30.15 in 10.0 mi East 3.5 mph - N/A   Mostly Cloudy
12:53 PM 45.0 °F - 35.1 °F 68% 30.12 in 10.0 mi Calm Calm - N/A   Mostly Cloudy
1:53 PM 48.0 °F - 35.1 °F 61% 30.09 in 9.0 mi Calm Calm - N/A   Clear
2:53 PM 50.0 °F - 36.0 °F 59% 30.06 in 10.0 mi NE 3.5 mph - N/A   Mostly Cloudy
3:53 PM 50.0 °F - 35.1 °F 57% 30.05 in 10.0 mi Calm Calm - N/A   Clear
4:53 PM 46.9 °F - 35.1 °F 63% 30.04 in 10.0 mi ESE 3.5 mph - N/A   Clear
5:53 PM 41.0 °F - 33.1 °F 73% 30.06 in 10.0 mi Calm Calm - N/A   Partly Cloudy
6:53 PM 41.0 °F - 33.1 °F 73% 30.05 in 10.0 mi Calm Calm - N/A   Mostly Cloudy
7:53 PM 42.1 °F - 34.0 °F 73% 30.01 in 10.0 mi Calm Calm - N/A   Overcast
8:53 PM 41.0 °F 37.1 °F 34.0 °F 76% 29.99 in 10.0 mi West 5.8 mph - N/A   Mostly Cloudy
9:53 PM 39.9 °F - 33.1 °F 77% 29.99 in 9.0 mi Calm Calm - N/A   Scattered Clouds
10:53 PM 39.0 °F - 33.1 °F 79% 29.96 in 9.0 mi Calm Calm - N/A   Overcast
11:53 PM 37.0 °F 34.5 °F 32.0 °F 82% 29.96 in 7.0 mi West 3.5 mph - N/A   Partly Cloudy